Shelbyville, IN

5:04 PM EST on December 14, 2019 (GMT -0500)
Shelbyville Municipal

Weather History for KGEZ - October, 2019

Change the Weather History Date:

Thursday, October 17, 2019

  Actual Average Record
Temperature  
Mean Temperature 49 °F 54 °F  
Max Temperature 59 °F 65 °F 85 °F (2016)
Min Temperature 38 °F 42 °F 30 °F (2004)
Degree Days  
Heating Degree Days 16 12  
Month to date heating degree days 113 160  
Since 1 July heating degree days 116 245  
Cooling Degree Days 0 0  
Month to date cooling degree days 36 11  
Year to date cooling degree days 1330 910  
Moisture  
Dew Point 36 °F    
Average Humidity 63    
Maximum Humidity 85    
Minimum Humidity 40    
Precipitation  
Precipitation 0.00 in 0.10 in 0.96 in (2006)
Month to date precipitation 0.93 1.78  
Year to date precipitation 33.14 35.23  
Sea Level Pressure  
Sea Level Pressure 30.01 in    
Wind  
Wind Speed 6 mph (WNW)    
Max Wind Speed 15 mph    
Max Gust Speed 22 mph    
Visibility 10 miles    
Events      
T = Trace of Precipitation, MM = Missing Value Source: NWS Daily Summary

Daily Weather History Graph

Daily Weather History Graph

Search for Another Location

Airport or City:

Astronomy

Oct. 17, 2019 Rise Set
Actual Time 7:55 AM EDT 7:01 PM EDT
Civil Twilight 7:27 AM EDT 7:28 PM EDT
Nautical Twilight 6:56 AM EDT 7:59 PM EDT
Astronomical Twilight 6:25 AM EDT 8:30 PM EDT
Moon 9:33 PM EDT (10/17) 11:25 AM EDT (10/17)
Length of Visible Light 12h 00m
Length of Day
11h 06m
Waning Gibbous, 87% of the Moon is Illuminated
Oct 17
Waning Gibbous
Oct 21
Last Quarter
Oct 27
New
Nov 4
First Quarter
Nov 12
Full

Hourly Weather History & Observations

Time (EDT) Temp. Windchill Dew Point Humidity Pressure Visibility Wind Dir Wind Speed Gust Speed Precip Events Conditions
12:53 AM 46.0 °F 41.9 °F 35.1 °F 66% 30.00 in 10.0 mi West 8.1 mph - N/A   Overcast
1:53 AM 43.0 °F 39.5 °F 35.1 °F 74% 30.00 in 10.0 mi West 5.8 mph - N/A   Partly Cloudy
2:53 AM 42.1 °F 37.7 °F 35.1 °F 76% 30.00 in 10.0 mi West 6.9 mph - N/A   Clear
3:53 AM 42.1 °F 37.7 °F 35.1 °F 76% 30.00 in 10.0 mi WNW 6.9 mph - N/A   Clear
4:53 AM 39.0 °F 34.8 °F 34.0 °F 82% 30.00 in 10.0 mi NW 5.8 mph - N/A   Clear
5:53 AM 39.0 °F 35.7 °F 34.0 °F 82% 30.00 in 10.0 mi WNW 4.6 mph - N/A   Clear
6:53 AM 39.9 °F 36.7 °F 36.0 °F 86% 30.00 in 10.0 mi West 4.6 mph - N/A   Clear
7:53 AM 41.0 °F 37.1 °F 36.0 °F 82% 30.01 in 10.0 mi West 5.8 mph - N/A   Clear
8:53 AM 41.0 °F 37.1 °F 36.0 °F 82% 30.03 in 10.0 mi WNW 5.8 mph - N/A   Clear
9:53 AM 46.0 °F 43.1 °F 37.0 °F 71% 30.04 in 10.0 mi WNW 5.8 mph - N/A   Clear
10:53 AM 48.9 °F - 37.0 °F 64% 30.04 in 10.0 mi West 6.9 mph - N/A   Clear
11:53 AM 53.1 °F - 35.1 °F 50% 30.04 in 10.0 mi NW 11.5 mph - N/A   Clear
12:53 PM 55.0 °F - 35.1 °F 47% 30.03 in 10.0 mi NNW 9.2 mph - N/A   Clear
1:53 PM 55.9 °F - 35.1 °F 45% 30.01 in 10.0 mi WSW 8.1 mph - N/A   Partly Cloudy
2:53 PM 57.9 °F - 35.1 °F 42% 30.00 in 10.0 mi Variable 6.9 mph 19.6 mph N/A   Scattered Clouds
3:53 PM 59.0 °F - 35.1 °F 41% 29.99 in 10.0 mi NW 10.4 mph - N/A   Partly Cloudy
4:53 PM 57.9 °F - 35.1 °F 42% 29.99 in 10.0 mi WNW 9.2 mph - N/A   Clear
5:53 PM 57.0 °F - 35.1 °F 44% 29.99 in 10.0 mi WNW 8.1 mph - N/A   Clear
6:53 PM 53.1 °F - 36.0 °F 52% 30.00 in 10.0 mi NW 3.5 mph - N/A   Clear
7:53 PM 45.0 °F 42.6 °F 37.0 °F 74% 30.01 in 10.0 mi WNW 4.6 mph - N/A   Clear
8:53 PM 43.0 °F 41.3 °F 37.0 °F 80% 30.02 in 10.0 mi NW 3.5 mph - N/A   Clear
9:53 PM 41.0 °F - 35.1 °F 79% 30.03 in 10.0 mi Calm Calm - N/A   Clear
10:53 PM 39.0 °F 35.7 °F 35.1 °F 86% 30.05 in 10.0 mi NNE 4.6 mph - N/A   Clear
11:53 PM 43.0 °F 40.3 °F 36.0 °F 76% 30.05 in 10.0 mi NNE 4.6 mph - N/A   Clear